Notices

What's New in latest Release from April 7th, 2021:

- Updated Glossary, including Speed of Maximum Gust, and Total Hourly Precipitation

- Updated national and regional climate services offices contacts and prices information

- Addition of station inventory lists for 1981-2010, 1971-2000, and 1961-1990 Normals.

If you haven't already, please take our survey and provide feedback about our website: https://eccc.sondage-survey.ca/f/LanguageSelection.aspx?s=442ca660-fcf1-47c0-95a9-59707d6fd709

Hourly Data Report for April 25, 2012

MIRAMICHI RCS
NEW BRUNSWICK

47°00'34.000" N
65°27'54.000" W
33.00 m
8100989
71744
ACQ

Download Data

Hourly Data (April 2012)
Hourly Data Report for April 25, 2012
TIME
LST
Temp Definition
°C
Dew Point Definition
°C
Rel Hum Definition
%
Precip. Amount Definition
mm

Wind Dir Definition
10's deg

Wind Spd Definition
km/h
Visibility Definition
km
Stn Press Definition
kPa
Hmdx Definition


Wind Chill Definition


Weather Definition


00:00 6.9 3.0 76   20 11   100.50     LegendNANA
01:00 5.6 2.8 82   20 11   100.53     LegendNANA
02:00 4.3 2.7 89   18 7   100.56     LegendNANA
03:00 3.3 2.0 91   17 9   100.60     LegendNANA
04:00 2.4 1.2 92   20 9   100.63     LegendNANA
05:00 2.6 1.6 93   21 4   100.67     LegendNANA
06:00 3.8 2.6 92   20 6   100.76     LegendNANA
07:00 5.0 3.4 89   20 7   100.82     LegendNANA
08:00 6.6 3.8 82   22 7   100.81     LegendNANA
09:00 8.3 4.3 76   16 7   100.80     LegendNANA
10:00 10.1 4.5 68   18 7   100.79     LegendNANA
11:00 12.2 3.9 57   16 11   100.73     LegendNANA
12:00 12.2 5.5 64   8 7   100.72     LegendNANA
13:00 13.3 4.3 54   18 7   100.66     LegendNANA
14:00 13.4 2.8 49   17 11   100.52     LegendNANA
15:00 13.8 1.2 42   16 9   100.49     LegendNANA
16:00 14.4 0.4 38   13 7   100.46     LegendNANA
17:00 12.5 5.5 62   9 19   100.42     LegendNANA
18:00 11.8 5.5 65   9 15   100.41     LegendNANA
19:00 10.4 5.1 70   9 15   100.37     LegendNANA
20:00 8.9 4.1 72   11 11   100.36     LegendNANA
21:00 7.7 5.5 86   10 9   100.39     LegendNANA
22:00 7.2 5.5 89   6 4   100.34     LegendNANA
23:00 7.0 5.6 91     0   100.23     LegendNANA

Notes on Data Quality.

Legend

  • E = Estimated
  • M = Missing
  • NA = Not Available*
  • [empty] = Indicates an unobserved value
Date modified: